Location: Unspecified
(47.5840°N, 122.3000°W)
Time: 15:26:25
(UTC+00:00)

Cosmos 1437 Rocket - Pass Details

Date: 09 December 2025
Orbit: 446 x 485 km, 81.2° (Epoch: 19 January)

Event Time Altitude Azimuth Distance (km) Brightness Sun altitude
Exits shadow 14:47:33 - 349° (NNW) 2,424 5.8 -9.4°
Reaches altitude 10° 14:49:32 10° 350° (N) 1,583 4.8 -9.1°
Maximum altitude 14:52:59 85° 77° (ENE) 456 2.4 -8.6°
Drops below altitude 10° 14:56:26 10° 168° (SSE) 1,577 5.7 -8.1°
Sets 14:58:30 0° 169° (S) 2,449 6.7 -7.7°
